DELTA 1 DEB

Satellite information

Favourite Embed

Satellite Type and Status

DEBRISIN ORBIT

Key statistics

Satellite DELTA 1 DEB at a glance.

Uptime

17589

Days in orbit

Revolutions

≈ 13.8

Per day

Orbit

LEO

Low Earth Orbit

Inclination

29.1

Latest

Satellite identification and parameters

Extended collection of information and parameters for DELTA 1 DEB.

Object identification

Identified? True

Debris? True

Object name: DELTA 1 DEB

International designator: 1977-065EC

Object number (NORAD): 10470

Object ID (CCSDS): 10470

Country: UNITED STATES OF AMERICA (US)

Current information (Y/N): Y

RCS size: MEDIUM

Orbital parameters

Period: 104.53 minutes

Inclination: 29.0977 deg

SMA: 7350.571 km

Apoapsis: 1411.702 km

Periapsis: 533.171 km

RAAN: 324.3024 deg

Eccentricy: 0.05975936

Argument of periapsis: 98.5489 deg

Mean anomaly: 268.322 deg

Mean motion: 13.77593593 rev/day

Mean motion (dot): 0.00001391 rev/day2

B* drag term: 0.00032784594 1/REarth

Two-line elements (TLE)

Creation date: Sept. 8, 2025, 3:16 a.m.

Reference frame: TEME

Reference center: EARTH

Epoch: Sept. 7, 2025, 10:17 p.m. UTC

TLE line 0: 0 DELTA 1 DEB

TLE line 1: 1 10470U 77065EC 25250.92860526 .00001391 00000-0 32785-3 0 9991

TLE line 2: 2 10470 29.0977 324.3024 0597594 98.5489 268.3220 13.77593593372803

Live tracking on map

Real-time ground track for satellite DELTA 1 DEB.

In-orbit conjunctions

A list of the most updated potential collisions computed for object DELTA 1 DEB.

Target Orbit TCA Probability of collision Miss distance Type
CZ-2C R/B LEO 2025-01-23 00:05:51 0.001518028 264.0 (m) ROCKET BODY
SAFIR 2 SSO 2024-11-17 04:51:36 0.000344939 273.0 (m) PAYLOAD
COSMOS 1275 DEB LEO 2024-11-12 19:04:26 0.001382545 207.0 (m) DEBRIS
SERT 2 SSO 2024-08-31 13:33:41 0.0002745669 802.0 (m) PAYLOAD

Associated space launch

Japanese meteorological satellite built by Hughes Space and Communications Company

DELTA 1 DEB was lifted into orbit during the mission ‘Delta 2914 | Himawari’, on board a Delta 2914 space rocket.

The launch took place on July 14, 1977, 10:39 a.m. from Space Launch Complex 17B.

For more information about the launch, click the button.

Launch to space Delta 2914 | Himawari
Delta 2914 | Himawari

Agency: N/A

Status: Launch Successful

Launch date: July 14, 1977, 10:39 a.m. UTC

Rocket: Delta 2914

Launch pad: Space Launch Complex 17B

Location: Cape Canaveral SFS, FL, USA

...

Latest news about this satellite

There are no fresh news available about this satellite. Check back as we update our databases every day.


Newsletter sign-up

Weekly statistics, charts and insights to help you stay on top of the space industry.